Location: ???????
(55.4362°N, 38.1183°E)
Time: 01:00:15
(UTC+00:00)

Cosmos 468 Rocket - Visible Passes

Search period start: 24 October 2021 00:00
Search period end: 03 November 2021 00:00
Orbit: 745 x 779 km, 74.0° (Epoch: 23 October)

Date Brightness Start Highest point End Pass type
(mag) Time Alt. Az. Time Alt. Az. Time Alt. Az.
24 Oct 5.8 00:34:44 22° N 00:34:44 22° N 00:37:06 10° NNE visible
24 Oct 6.1 02:14:52 11° NW 02:16:25 12° NNW 02:18:18 10° N visible
24 Oct 6.2 23:56:37 19° N 23:56:37 19° N 23:58:17 10° NNE visible
25 Oct 6.0 01:36:45 14° NNW 01:36:53 14° NNW 01:39:38 10° N visible
25 Oct 6.6 23:18:30 15° NNE 23:18:30 15° NNE 23:19:26 10° NNE visible
26 Oct 6.0 00:58:38 17° NNW 00:58:38 17° NNW 01:00:55 10° N visible
26 Oct 7.0 22:40:22 11° NNE 22:40:22 11° NNE 22:40:32 10° NNE visible
27 Oct 6.2 00:20:30 17° N 00:20:30 17° N 00:22:09 10° NNE visible
27 Oct 6.3 02:00:50 10° NNW 02:02:01 11° NNW 02:03:13 10° N visible
27 Oct 6.5 23:42:21 15° N 23:42:21 15° N 23:43:22 10° NNE visible
28 Oct 6.2 01:22:29 12° NNW 01:22:29 12° NNW 01:24:38 10° N visible
28 Oct 6.9 23:04:12 12° NNE 23:04:12 12° NNE 23:04:33 10° NNE visible
29 Oct 6.3 00:44:20 14° N 00:44:20 14° N 00:45:56 10° N visible
30 Oct 6.5 00:06:11 14° N 00:06:11 14° N 00:07:12 10° NNE visible
30 Oct 6.3 03:30:07 10° N 03:32:10 12° NNE 03:34:13 10° NE visible
30 Oct 6.8 23:28:01 12° NNE 23:28:01 12° NNE 23:28:26 10° NNE visible
31 Oct 6.4 01:08:09 11° NNW 01:08:09 11° NNW 01:09:35 10° N visible
31 Oct 6.4 02:51:33 10° N 02:52:34 10° NNE 02:53:35 10° NNE visible
01 Nov 6.5 00:29:59 12° N 00:29:59 12° N 00:30:56 10° N visible
01 Nov 6.7 23:51:49 11° N 23:51:49 11° N 23:52:14 10° N visible
02 Nov 6.3 03:15:05 10° N 03:17:44 14° NNE 03:20:23 10° NE visible
